Time,TemperatureF,DewpointF,PressureIn,WindDirection,WindDirectionDegrees,WindSpeedMPH,WindSpeedGustMPH,Humidity,HourlyPrecipIn,Conditions,Clouds,dailyrainin,SoftwareType,DateUTC
2013-06-14 00:01:00,62.4,58.5,29.71,SE,135,0.0,0.0,87,0.00,,,0.00,WUHU216HW,2013-06-14 05:01:00,
2013-06-14 00:06:00,62.5,58.6,29.71,WNW,293,0.0,0.0,87,0.00,,,0.00,WUHU216HW,2013-06-14 05:06:00,
2013-06-14 00:11:00,62.5,58.9,29.71,NNE,23,0.0,0.0,88,0.00,,,0.00,WUHU216HW,2013-06-14 05:11:00,
2013-06-14 00:16:00,62.5,59.3,29.71,NW,315,0.4,0.4,89,0.00,,,0.00,WUHU216HW,2013-06-14 05:16:00,
2013-06-14 00:21:00,62.6,59.0,29.71,North,0,0.0,0.4,88,0.00,,,0.00,WUHU216HW,2013-06-14 05:21:00,
2013-06-14 00:26:00,62.6,59.0,29.71,NNW,338,0.0,0.4,88,0.00,,,0.00,WUHU216HW,2013-06-14 05:26:00,
2013-06-14 00:31:00,62.6,59.3,29.71,West,270,0.0,0.0,89,0.00,,,0.00,WUHU216HW,2013-06-14 05:31:00,
2013-06-14 00:36:00,62.8,59.2,29.72,WNW,293,0.0,0.2,88,0.00,,,0.00,WUHU216HW,2013-06-14 05:36:00,
2013-06-14 00:41:00,62.8,59.3,29.72,West,270,0.0,0.2,88,0.00,,,0.00,WUHU216HW,2013-06-14 05:41:00,
2013-06-14 00:46:00,62.7,59.1,29.72,West,270,0.0,0.0,88,0.00,,,0.00,WUHU216HW,2013-06-14 05:46:00,
2013-06-14 00:51:00,62.5,58.9,29.72,West,270,0.0,0.0,88,0.00,,,0.00,WUHU216HW,2013-06-14 05:51:00,
2013-06-14 00:56:00,62.5,58.9,29.72,NW,315,0.0,0.0,88,0.00,,,0.00,WUHU216HW,2013-06-14 05:56:00,
2013-06-14 01:01:00,62.5,59.2,29.72,WNW,293,0.0,0.0,89,0.00,,,0.00,WUHU216HW,2013-06-14 06:01:00,
2013-06-14 01:06:00,62.7,59.7,29.73,SW,225,0.0,0.0,90,0.00,,,0.00,WUHU216HW,2013-06-14 06:06:00,
2013-06-14 01:11:00,62.5,59.5,29.73,SW,225,0.0,0.0,90,0.00,,,0.00,WUHU216HW,2013-06-14 06:11:00,
2013-06-14 01:16:00,62.3,59.0,29.73,SW,225,0.0,0.0,89,0.00,,,0.00,WUHU216HW,2013-06-14 06:16:00,
2013-06-14 01:21:00,62.3,59.3,29.74,SW,225,0.0,0.0,90,0.00,,,0.00,WUHU216HW,2013-06-14 06:21:00,
2013-06-14 01:26:00,62.5,59.5,29.74,WSW,248,0.0,0.0,90,0.00,,,0.00,WUHU216HW,2013-06-14 06:26:00,
2013-06-14 01:31:00,62.5,59.5,29.74,ESE,113,0.0,0.0,90,0.00,,,0.00,WUHU216HW,2013-06-14 06:31:00,
2013-06-14 01:36:00,62.3,59.3,29.74,ESE,113,0.0,0.0,90,0.00,,,0.00,WUHU216HW,2013-06-14 06:36:00,
2013-06-14 01:41:00,62.1,58.8,29.75,ESE,113,0.0,0.0,89,0.00,,,0.00,WUHU216HW,2013-06-14 06:41:00,
2013-06-14 01:46:00,62.0,58.7,29.75,ESE,113,0.0,0.0,89,0.00,,,0.00,WUHU216HW,2013-06-14 06:46:00,
2013-06-14 01:51:00,61.5,58.3,29.75,ESE,113,0.0,0.0,89,0.00,,,0.00,WUHU216HW,2013-06-14 06:51:00,
2013-06-14 01:56:00,61.5,58.3,29.75,ESE,113,0.0,0.0,89,0.00,,,0.00,WUHU216HW,2013-06-14 06:56:00,
2013-06-14 02:01:00,61.3,58.0,29.75,ESE,113,0.0,0.0,89,0.00,,,0.00,WUHU216HW,2013-06-14 07:01:00,
2013-06-14 02:06:00,61.1,57.8,29.75,ESE,113,0.0,0.0,89,0.00,,,0.00,WUHU216HW,2013-06-14 07:06:00,
2013-06-14 02:11:00,61.0,58.1,29.76,ESE,113,0.0,0.0,90,0.00,,,0.00,WUHU216HW,2013-06-14 07:11:00,
2013-06-14 02:16:00,60.9,57.7,29.76,ESE,113,0.0,0.0,89,0.00,,,0.00,WUHU216HW,2013-06-14 07:16:00,
2013-06-14 02:21:00,60.9,57.6,29.76,ESE,113,0.0,0.0,89,0.00,,,0.00,WUHU216HW,2013-06-14 07:21:00,
2013-06-14 02:26:00,60.7,57.4,29.77,ESE,113,0.0,0.0,89,0.00,,,0.00,WUHU216HW,2013-06-14 07:26:00,
2013-06-14 02:31:00,60.6,57.4,29.77,ESE,113,0.0,0.0,89,0.00,,,0.00,WUHU216HW,2013-06-14 07:31:00,
2013-06-14 02:36:00,60.4,57.4,29.77,ESE,113,0.0,0.0,90,0.00,,,0.00,WUHU216HW,2013-06-14 07:36:00,
2013-06-14 02:41:00,60.5,57.6,29.76,ESE,113,0.0,0.0,90,0.00,,,0.00,WUHU216HW,2013-06-14 07:41:00,
2013-06-14 02:46:00,60.5,57.5,29.76,ESE,113,0.0,0.0,90,0.00,,,0.00,WUHU216HW,2013-06-14 07:46:00,
2013-06-14 02:51:00,60.4,57.5,29.76,ESE,113,0.0,0.0,90,0.00,,,0.00,WUHU216HW,2013-06-14 07:51:00,
2013-06-14 02:56:00,60.4,57.5,29.76,East,90,0.4,0.4,90,0.00,,,0.00,WUHU216HW,2013-06-14 07:56:00,
2013-06-14 03:01:00,60.6,57.9,29.76,NNE,23,0.0,0.4,91,0.00,,,0.00,WUHU216HW,2013-06-14 08:01:00,
2013-06-14 03:06:00,60.5,57.6,29.76,SE,135,0.4,0.4,90,0.00,,,0.00,WUHU216HW,2013-06-14 08:06:00,
2013-06-14 03:11:00,60.2,57.6,29.76,WSW,248,0.4,0.4,91,0.00,,,0.00,WUHU216HW,2013-06-14 08:11:00,
2013-06-14 03:16:00,60.4,57.8,29.76,SW,225,0.0,0.7,91,0.00,,,0.00,WUHU216HW,2013-06-14 08:16:00,
2013-06-14 03:21:00,62.4,60.7,29.76,ESE,118,0.3,2.9,94,0.00,,,0.00,WUHU216HW,2013-06-14 08:21:00,
2013-06-14 03:26:00,63.7,61.6,29.76,ENE,71,2.5,3.1,93,0.00,,,0.00,WUHU216HW,2013-06-14 08:26:00,
2013-06-14 03:31:00,64.7,62.3,29.76,NE,45,2.2,3.1,92,0.00,,,0.00,WUHU216HW,2013-06-14 08:31:00,
2013-06-14 03:36:00,65.7,62.6,29.76,SE,135,2.2,3.4,90,0.00,,,0.00,WUHU216HW,2013-06-14 08:36:00,
2013-06-14 03:41:00,66.2,62.5,29.76,SSE,163,0.4,3.4,88,0.00,,,0.00,WUHU216HW,2013-06-14 08:41:00,
2013-06-14 03:46:00,65.9,62.3,29.76,ENE,68,0.7,2.5,88,0.00,,,0.00,WUHU216HW,2013-06-14 08:46:00,
2013-06-14 03:51:00,66.0,62.1,29.77,ENE,71,1.3,2.5,87,0.00,,,0.00,WUHU216HW,2013-06-14 08:51:00,
2013-06-14 03:56:00,66.3,62.0,29.77,East,90,1.3,3.1,86,0.00,,,0.00,WUHU216HW,2013-06-14 08:56:00,
2013-06-14 04:01:00,66.4,61.8,29.77,SE,135,1.8,3.1,85,0.00,,,0.00,WUHU216HW,2013-06-14 09:01:00,
2013-06-14 04:06:00,66.3,61.4,29.77,ESE,113,2.5,2.7,84,0.00,,,0.00,WUHU216HW,2013-06-14 09:06:00,
2013-06-14 04:11:00,66.3,61.3,29.78,East,90,2.5,2.7,84,0.00,,,0.00,WUHU216HW,2013-06-14 09:11:00,
2013-06-14 04:16:00,66.2,61.3,29.78,ENE,68,1.8,4.3,84,0.00,,,0.00,WUHU216HW,2013-06-14 09:16:00,
2013-06-14 04:21:00,66.1,60.9,29.78,SE,135,3.4,4.3,83,0.00,,,0.00,WUHU216HW,2013-06-14 09:21:00,
2013-06-14 04:26:00,66.2,61.0,29.78,ESE,102,2.3,4.7,83,0.00,,,0.00,WUHU216HW,2013-06-14 09:26:00,
2013-06-14 04:31:00,66.1,60.9,29.78,East,84,2.1,4.7,83,0.00,,,0.00,WUHU216HW,2013-06-14 09:31:00,
2013-06-14 04:36:00,65.9,60.6,29.79,ENE,68,3.4,4.7,83,0.00,,,0.00,WUHU216HW,2013-06-14 09:36:00,
2013-06-14 04:41:00,65.8,60.5,29.79,ESE,113,1.6,4.0,83,0.00,,,0.00,WUHU216HW,2013-06-14 09:41:00,
2013-06-14 04:46:00,65.5,60.3,29.78,East,85,2.3,4.0,83,0.00,,,0.00,WUHU216HW,2013-06-14 09:46:00,
2013-06-14 04:51:00,65.4,60.2,29.79,ENE,66,2.3,4.0,83,0.00,,,0.00,WUHU216HW,2013-06-14 09:51:00,
2013-06-14 04:56:00,65.3,60.1,29.79,ENE,65,1.5,4.0,83,0.00,,,0.00,WUHU216HW,2013-06-14 09:56:00,
2013-06-14 05:01:00,65.1,59.9,29.79,SE,135,1.8,4.0,83,0.00,,,0.00,WUHU216HW,2013-06-14 10:01:00,
2013-06-14 05:06:00,64.8,59.9,29.79,ENE,63,1.3,3.6,84,0.00,,,0.00,WUHU216HW,2013-06-14 10:06:00,
2013-06-14 05:11:00,64.7,59.8,29.79,ENE,68,2.5,3.6,84,0.00,,,0.00,WUHU216HW,2013-06-14 10:11:00,
2013-06-14 05:16:00,64.6,59.4,29.80,NNE,23,0.9,2.9,83,0.00,,,0.00,WUHU216HW,2013-06-14 10:16:00,
2013-06-14 05:21:00,64.3,59.5,29.80,NNE,23,1.3,2.2,84,0.00,,,0.00,WUHU216HW,2013-06-14 10:21:00,
2013-06-14 05:26:00,64.1,59.2,29.80,NE,45,1.3,2.0,84,0.00,,,0.00,WUHU216HW,2013-06-14 10:26:00,
2013-06-14 05:31:00,64.0,59.1,29.80,ENE,74,1.2,2.5,84,0.00,,,0.00,WUHU216HW,2013-06-14 10:31:00,
2013-06-14 05:36:00,63.9,59.0,29.81,East,90,1.6,3.8,84,0.00,,,0.00,WUHU216HW,2013-06-14 10:36:00,
2013-06-14 05:41:00,64.0,59.1,29.81,East,90,2.0,3.8,84,0.00,,,0.00,WUHU216HW,2013-06-14 10:41:00,
2013-06-14 05:46:00,63.7,58.8,29.81,ESE,113,0.4,3.1,84,0.00,,,0.00,WUHU216HW,2013-06-14 10:46:00,
2013-06-14 05:51:00,63.6,58.7,29.81,East,90,0.4,2.5,84,0.00,,,0.00,WUHU216HW,2013-06-14 10:51:00,
2013-06-14 05:56:00,63.5,58.6,29.82,East,91,1.9,2.5,84,0.00,,,0.00,WUHU216HW,2013-06-14 10:56:00,
2013-06-14 06:01:00,63.4,58.5,29.81,East,89,1.2,2.5,84,0.00,,,0.00,WUHU216HW,2013-06-14 11:01:00,
2013-06-14 06:06:00,63.5,58.6,29.81,East,90,1.1,2.5,84,0.00,,,0.00,WUHU216HW,2013-06-14 11:06:00,
2013-06-14 06:11:00,63.6,58.4,29.82,ESE,102,1.6,2.9,83,0.00,,,0.00,WUHU216HW,2013-06-14 11:11:00,
2013-06-14 06:16:00,63.7,58.5,29.82,ENE,68,2.0,3.6,83,0.00,,,0.00,WUHU216HW,2013-06-14 11:16:00,
2013-06-14 06:21:00,63.7,58.2,29.81,ENE,68,1.3,3.6,82,0.00,,,0.00,WUHU216HW,2013-06-14 11:21:00,
2013-06-14 06:26:00,63.6,58.1,29.82,ENE,72,1.5,3.1,82,0.00,,,0.00,WUHU216HW,2013-06-14 11:26:00,
2013-06-14 06:31:00,63.7,58.2,29.82,East,96,0.8,3.1,82,0.00,,,0.00,WUHU216HW,2013-06-14 11:31:00,
2013-06-14 06:36:00,63.6,58.1,29.82,North,0,0.5,2.0,82,0.00,,,0.00,WUHU216HW,2013-06-14 11:36:00,
2013-06-14 06:41:00,63.3,57.8,29.82,SE,135,0.5,2.0,82,0.00,,,0.00,WUHU216HW,2013-06-14 11:41:00,
2013-06-14 06:46:00,63.3,57.7,29.82,NE,45,0.9,1.1,82,0.00,,,0.00,WUHU216HW,2013-06-14 11:46:00,
2013-06-14 06:51:00,63.1,57.6,29.82,ESE,110,1.1,1.8,82,0.00,,,0.00,WUHU216HW,2013-06-14 11:51:00,
2013-06-14 06:56:00,63.0,57.8,29.82,NE,45,1.8,1.8,83,0.00,,,0.00,WUHU216HW,2013-06-14 11:56:00,
2013-06-14 07:01:00,63.2,58.0,29.82,ESE,113,0.4,1.8,83,0.00,,,0.00,WUHU216HW,2013-06-14 12:01:00,
2013-06-14 07:06:00,63.5,58.0,29.83,ESE,113,2.5,2.5,82,0.00,,,0.00,WUHU216HW,2013-06-14 12:06:00,
2013-06-14 07:10:00,63.7,58.5,29.83,ESE,113,1.1,2.9,83,0.00,,,0.00,WUHU216HW,2013-06-14 12:10:00,
2013-06-14 07:15:00,64.3,58.8,29.83,SE,135,0.2,2.9,82,0.00,,,0.00,WUHU216HW,2013-06-14 12:15:00,
2013-06-14 07:21:00,64.5,58.6,29.83,ESE,107,1.2,1.3,81,0.00,,,0.00,WUHU216HW,2013-06-14 12:21:00,
2013-06-14 07:26:00,64.4,58.2,29.83,ESE,113,2.2,2.2,80,0.00,,,0.00,WUHU216HW,2013-06-14 12:26:00,
2013-06-14 07:31:00,64.3,58.4,29.83,NE,45,1.1,2.9,81,0.00,,,0.00,WUHU216HW,2013-06-14 12:31:00,
2013-06-14 07:37:00,64.2,58.0,29.84,ENE,68,2.2,2.9,80,0.00,,,0.00,WUHU216HW,2013-06-14 12:37:00,
2013-06-14 07:42:00,63.7,57.5,29.83,ENE,68,2.2,2.5,80,0.00,,,0.00,WUHU216HW,2013-06-14 12:42:00,
2013-06-14 07:47:00,63.4,56.9,29.83,ESE,113,3.4,3.6,79,0.00,,,0.00,WUHU216HW,2013-06-14 12:47:00,
2013-06-14 07:52:00,63.5,56.7,29.84,ENE,62,2.7,3.6,78,0.00,,,0.00,WUHU216HW,2013-06-14 12:52:00,
2013-06-14 07:57:00,64.0,56.4,29.83,East,93,3.5,4.7,76,0.00,,,0.00,WUHU216HW,2013-06-14 12:57:00,
2013-06-14 08:02:00,64.1,56.5,29.83,NE,45,3.8,4.7,76,0.00,,,0.00,WUHU216HW,2013-06-14 13:02:00,
2013-06-14 08:07:00,65.1,57.5,29.84,SSE,158,1.8,4.9,76,0.00,,,0.00,WUHU216HW,2013-06-14 13:07:00,
2013-06-14 08:12:00,66.2,56.7,29.84,East,90,4.0,6.3,71,0.00,,,0.00,WUHU216HW,2013-06-14 13:12:00,
2013-06-14 08:17:00,66.1,57.0,29.84,NE,52,1.5,6.3,72,0.00,,,0.00,WUHU216HW,2013-06-14 13:17:00,
2013-06-14 08:22:00,65.4,55.9,29.84,NE,45,3.4,4.9,71,0.00,,,0.00,WUHU216HW,2013-06-14 13:22:00,
2013-06-14 08:27:00,64.8,55.8,29.84,NE,47,3.3,4.7,72,0.00,,,0.00,WUHU216HW,2013-06-14 13:27:00,
2013-06-14 08:32:00,64.8,55.3,29.84,ENE,68,2.5,4.5,71,0.00,,,0.00,WUHU216HW,2013-06-14 13:32:00,
2013-06-14 08:37:00,65.1,56.0,29.84,SE,135,1.6,4.0,72,0.00,,,0.00,WUHU216HW,2013-06-14 13:37:00,
2013-06-14 08:42:00,65.0,55.6,29.83,ENE,66,2.9,4.5,71,0.00,,,0.00,WUHU216HW,2013-06-14 13:42:00,
2013-06-14 08:47:00,64.6,55.5,29.83,SE,135,1.3,4.5,72,0.00,,,0.00,WUHU216HW,2013-06-14 13:47:00,
2013-06-14 08:52:00,64.5,55.1,29.83,ENE,68,4.0,4.0,71,0.00,,,0.00,WUHU216HW,2013-06-14 13:52:00,
2013-06-14 08:57:00,64.4,55.4,29.82,ESE,105,3.3,4.3,72,0.00,,,0.00,WUHU216HW,2013-06-14 13:57:00,
2013-06-14 09:02:00,64.8,56.1,29.82,ENE,68,2.7,4.3,73,0.00,,,0.00,WUHU216HW,2013-06-14 14:02:00,
2013-06-14 09:07:00,65.6,55.8,29.82,ESE,113,4.0,4.7,70,0.00,,,0.00,WUHU216HW,2013-06-14 14:07:00,
2013-06-14 09:12:00,65.8,56.0,29.81,WNW,293,3.1,5.4,70,0.00,,,0.00,WUHU216HW,2013-06-14 14:12:00,
2013-06-14 09:17:00,66.5,56.2,29.81,East,86,3.7,5.4,69,0.00,,,0.00,WUHU216HW,2013-06-14 14:17:00,
2013-06-14 09:22:00,66.8,55.7,29.81,East,81,4.9,6.3,67,0.00,,,0.00,WUHU216HW,2013-06-14 14:22:00,
2013-06-14 09:27:00,67.2,56.0,29.81,ENE,68,3.1,6.3,67,0.00,,,0.00,WUHU216HW,2013-06-14 14:27:00,
2013-06-14 09:32:00,68.3,56.7,29.81,East,90,2.9,6.3,66,0.00,,,0.00,WUHU216HW,2013-06-14 14:32:00,
2013-06-14 09:37:00,68.0,56.1,29.81,ENE,78,3.4,6.0,65,0.00,,,0.00,WUHU216HW,2013-06-14 14:37:00,
2013-06-14 09:42:00,67.9,56.3,29.81,East,90,3.8,6.0,66,0.00,,,0.00,WUHU216HW,2013-06-14 14:42:00,
2013-06-14 09:47:00,68.5,56.5,29.81,ESE,113,2.9,5.6,65,0.00,,,0.00,WUHU216HW,2013-06-14 14:47:00,
2013-06-14 09:52:00,68.8,57.6,29.81,East,90,2.5,4.3,67,0.00,,,0.00,WUHU216HW,2013-06-14 14:52:00,
2013-06-14 09:57:00,68.7,57.1,29.80,East,100,2.6,4.7,66,0.00,,,0.00,WUHU216HW,2013-06-14 14:57:00,
2013-06-14 10:02:00,68.7,57.1,29.80,East,92,2.9,4.7,66,0.00,,,0.00,WUHU216HW,2013-06-14 15:02:00,
2013-06-14 10:07:00,68.1,56.5,29.79,East,84,2.5,5.4,66,0.00,,,0.00,WUHU216HW,2013-06-14 15:07:00,
2013-06-14 10:12:00,68.6,57.4,29.79,East,90,2.7,5.4,67,0.00,,,0.00,WUHU216HW,2013-06-14 15:12:00,
2013-06-14 10:17:00,69.1,57.9,29.79,ENE,68,2.0,4.7,67,0.00,,,0.00,WUHU216HW,2013-06-14 15:17:00,
2013-06-14 10:22:00,69.8,57.3,29.79,ESE,104,5.3,8.5,64,0.00,,,0.00,WUHU216HW,2013-06-14 15:22:00,
2013-06-14 10:27:00,70.4,57.5,29.79,ENE,73,4.0,8.5,63,0.00,,,0.00,WUHU216HW,2013-06-14 15:27:00,
2013-06-14 10:32:00,71.3,58.3,29.80,East,84,3.0,5.6,63,0.00,,,0.00,WUHU216HW,2013-06-14 15:32:00,
2013-06-14 10:37:00,71.2,57.3,29.81,NE,43,3.7,6.3,61,0.00,,,0.00,WUHU216HW,2013-06-14 15:37:00,
2013-06-14 10:42:00,71.6,59.0,29.81,ESE,115,2.8,6.3,64,0.00,,,0.00,WUHU216HW,2013-06-14 15:42:00,
2013-06-14 10:47:00,72.2,58.3,29.82,ENE,58,3.1,5.4,61,0.00,,,0.00,WUHU216HW,2013-06-14 15:47:00,
2013-06-14 10:52:00,72.6,59.5,29.82,ESE,113,2.5,5.4,63,0.00,,,0.00,WUHU216HW,2013-06-14 15:52:00,
2013-06-14 10:57:00,73.5,59.0,29.82,ENE,68,1.8,5.4,60,0.00,,,0.00,WUHU216HW,2013-06-14 15:57:00,
2013-06-14 11:02:00,73.0,58.1,29.82,East,83,2.4,4.5,59,0.00,,,0.00,WUHU216HW,2013-06-14 16:02:00,
2013-06-14 11:07:00,73.2,58.2,29.82,NNE,23,2.2,4.5,59,0.00,,,0.00,WUHU216HW,2013-06-14 16:07:00,
2013-06-14 11:12:00,72.9,58.5,29.81,ENE,70,2.5,3.6,60,0.00,,,0.00,WUHU216HW,2013-06-14 16:12:00,
2013-06-14 11:17:00,74.0,59.0,29.81,East,90,2.9,3.6,59,0.00,,,0.00,WUHU216HW,2013-06-14 16:17:00,
2013-06-14 11:22:00,74.2,58.7,29.81,SW,214,2.3,3.4,58,0.00,,,0.00,WUHU216HW,2013-06-14 16:22:00,
2013-06-14 11:27:00,75.0,60.0,29.81,SW,218,0.5,3.4,59,0.00,,,0.00,WUHU216HW,2013-06-14 16:27:00,
2013-06-14 11:32:00,74.2,58.2,29.81,East,88,2.8,5.6,57,0.00,,,0.00,WUHU216HW,2013-06-14 16:32:00,
2013-06-14 11:37:00,74.1,58.1,29.81,East,80,3.7,5.6,57,0.00,,,0.00,WUHU216HW,2013-06-14 16:37:00,
2013-06-14 11:42:00,74.8,58.2,29.81,ENE,68,2.9,5.6,56,0.00,,,0.00,WUHU216HW,2013-06-14 16:42:00,
2013-06-14 11:47:00,75.4,59.9,29.82,SE,129,1.6,3.1,58,0.00,,,0.00,WUHU216HW,2013-06-14 16:47:00,
2013-06-14 11:52:00,75.8,58.7,29.82,ESE,113,2.2,3.1,55,0.00,,,0.00,WUHU216HW,2013-06-14 16:52:00,
2013-06-14 11:57:00,76.1,58.4,29.82,South,188,1.1,2.5,54,0.00,,,0.00,WUHU216HW,2013-06-14 16:57:00,
2013-06-14 12:02:00,75.9,58.2,29.82,ENE,74,2.2,3.6,54,0.00,,,0.00,WUHU216HW,2013-06-14 17:02:00,
2013-06-14 12:07:00,75.5,58.4,29.82,SSE,147,1.2,3.6,55,0.00,,,0.00,WUHU216HW,2013-06-14 17:07:00,
2013-06-14 12:12:00,75.7,57.6,29.82,SE,135,2.0,2.5,53,0.00,,,0.00,WUHU216HW,2013-06-14 17:12:00,
2013-06-14 12:17:00,75.3,58.2,29.82,SSE,158,1.1,2.2,55,0.00,,,0.00,WUHU216HW,2013-06-14 17:17:00,
2013-06-14 12:22:00,74.6,57.0,29.82,ENE,68,3.4,4.3,54,0.00,,,0.00,WUHU216HW,2013-06-14 17:22:00,
2013-06-14 12:27:00,74.0,57.5,29.82,ENE,76,2.4,4.3,56,0.00,,,0.00,WUHU216HW,2013-06-14 17:27:00,
2013-06-14 12:32:00,73.9,57.9,29.83,East,84,1.8,3.8,57,0.00,,,0.00,WUHU216HW,2013-06-14 17:32:00,
2013-06-14 12:37:00,74.1,57.1,29.83,SSW,197,1.6,2.5,55,0.00,,,0.00,WUHU216HW,2013-06-14 17:37:00,
2013-06-14 12:42:00,74.3,57.8,29.83,SSE,159,1.0,2.2,56,0.00,,,0.00,WUHU216HW,2013-06-14 17:42:00,
2013-06-14 12:47:00,75.2,58.7,29.83,SW,225,1.1,1.6,56,0.00,,,0.00,WUHU216HW,2013-06-14 17:47:00,
2013-06-14 12:52:00,75.6,58.5,29.82,SSW,203,1.6,2.2,55,0.00,,,0.00,WUHU216HW,2013-06-14 17:52:00,
2013-06-14 12:57:00,75.7,58.6,29.82,West,270,1.1,2.2,55,0.00,,,0.00,WUHU216HW,2013-06-14 17:57:00,
2013-06-14 13:02:00,75.7,57.5,29.81,SW,225,1.6,1.8,53,0.00,,,0.00,WUHU216HW,2013-06-14 18:02:00,
2013-06-14 13:07:00,75.6,58.5,29.81,ESE,113,1.1,3.4,55,0.00,,,0.00,WUHU216HW,2013-06-14 18:07:00,
2013-06-14 13:12:00,75.6,58.0,29.81,SSW,195,1.1,3.4,54,0.00,,,0.00,WUHU216HW,2013-06-14 18:12:00,
2013-06-14 13:17:00,75.9,58.3,29.81,ENE,68,1.6,2.5,54,0.00,,,0.00,WUHU216HW,2013-06-14 18:17:00,
2013-06-14 13:22:00,75.7,57.5,29.81,ESE,105,2.0,3.6,53,0.00,,,0.00,WUHU216HW,2013-06-14 18:22:00,
2013-06-14 13:27:00,75.7,57.0,29.81,South,180,1.8,3.6,52,0.00,,,0.00,WUHU216HW,2013-06-14 18:27:00,
2013-06-14 13:32:00,75.6,56.9,29.81,NE,45,4.0,4.7,52,0.00,,,0.00,WUHU216HW,2013-06-14 18:32:00,
2013-06-14 13:37:00,75.4,57.8,29.80,SW,225,1.1,4.7,54,0.00,,,0.00,WUHU216HW,2013-06-14 18:37:00,
2013-06-14 13:42:00,75.6,57.5,29.80,WSW,248,1.8,4.0,53,0.00,,,0.00,WUHU216HW,2013-06-14 18:42:00,
2013-06-14 13:47:00,75.9,58.3,29.80,East,96,1.5,1.8,54,0.00,,,0.00,WUHU216HW,2013-06-14 18:47:00,
2013-06-14 13:52:00,75.9,57.8,29.79,NNE,23,2.5,2.9,53,0.00,,,0.00,WUHU216HW,2013-06-14 18:52:00,
2013-06-14 13:57:00,75.7,58.0,29.79,East,83,1.9,3.6,54,0.00,,,0.00,WUHU216HW,2013-06-14 18:57:00,
2013-06-14 14:02:00,75.7,57.0,29.79,SSW,203,2.0,3.6,52,0.00,,,0.00,WUHU216HW,2013-06-14 19:02:00,
2013-06-14 14:07:00,76.0,57.8,29.79,WSW,248,1.8,2.5,53,0.00,,,0.00,WUHU216HW,2013-06-14 19:07:00,
2013-06-14 14:12:00,76.9,59.2,29.79,SE,133,1.4,3.4,54,0.00,,,0.00,WUHU216HW,2013-06-14 19:12:00,
2013-06-14 14:17:00,77.3,58.5,29.78,SE,132,2.0,3.4,52,0.00,,,0.00,WUHU216HW,2013-06-14 19:17:00,
2013-06-14 14:22:00,77.5,57.6,29.77,SSE,159,2.5,3.4,50,0.00,,,0.00,WUHU216HW,2013-06-14 19:22:00,
2013-06-14 14:27:00,77.2,57.8,29.77,ESE,113,2.0,3.4,51,0.00,,,0.00,WUHU216HW,2013-06-14 19:27:00,
2013-06-14 14:32:00,77.7,58.8,29.76,South,180,1.8,3.1,52,0.00,,,0.00,WUHU216HW,2013-06-14 19:32:00,
2013-06-14 14:37:00,77.9,58.5,29.76,NE,45,2.9,4.7,51,0.00,,,0.00,WUHU216HW,2013-06-14 19:37:00,
2013-06-14 14:42:00,77.4,58.6,29.75,ENE,64,3.4,6.3,52,0.00,,,0.00,WUHU216HW,2013-06-14 19:42:00,
2013-06-14 14:47:00,77.7,58.8,29.74,ESE,113,2.2,6.3,52,0.00,,,0.00,WUHU216HW,2013-06-14 19:47:00,
2013-06-14 14:52:00,78.0,59.1,29.74,SSE,163,1.6,3.4,52,0.00,,,0.00,WUHU216HW,2013-06-14 19:52:00,
2013-06-14 14:57:00,77.8,58.4,29.73,NE,45,3.4,4.5,51,0.00,,,0.00,WUHU216HW,2013-06-14 19:57:00,
2013-06-14 15:02:00,77.7,58.9,29.73,South,180,1.1,4.5,52,0.00,,,0.00,WUHU216HW,2013-06-14 20:02:00,
2013-06-14 15:07:00,77.0,58.7,29.73,NNE,23,1.6,3.4,53,0.00,,,0.00,WUHU216HW,2013-06-14 20:07:00,
2013-06-14 15:12:00,77.2,58.4,29.72,ENE,68,3.4,4.0,52,0.00,,,0.00,WUHU216HW,2013-06-14 20:12:00,
2013-06-14 15:17:00,76.7,58.5,29.72,SE,124,3.1,5.1,53,0.00,,,0.00,WUHU216HW,2013-06-14 20:17:00,
2013-06-14 15:22:00,77.3,59.0,29.71,SE,125,1.8,5.1,53,0.00,,,0.00,WUHU216HW,2013-06-14 20:22:00,
2013-06-14 15:27:00,77.9,59.1,29.71,ESE,113,4.7,5.8,52,0.00,,,0.00,WUHU216HW,2013-06-14 20:27:00,
2013-06-14 15:32:00,78.3,60.5,29.71,ESE,111,2.5,5.8,54,0.00,,,0.00,WUHU216HW,2013-06-14 20:32:00,
2013-06-14 15:37:00,78.5,59.0,29.71,ENE,69,3.1,6.0,51,0.00,,,0.00,WUHU216HW,2013-06-14 20:37:00,
2013-06-14 15:42:00,78.0,59.2,29.70,ENE,65,3.9,6.9,52,0.00,,,0.00,WUHU216HW,2013-06-14 20:42:00,
2013-06-14 15:47:00,78.2,59.3,29.70,ENE,75,5.5,6.9,52,0.00,,,0.00,WUHU216HW,2013-06-14 20:47:00,
2013-06-14 15:52:00,79.1,60.2,29.69,East,95,1.6,7.6,52,0.00,,,0.00,WUHU216HW,2013-06-14 20:52:00,
2013-06-14 15:57:00,80.7,61.1,29.69,ESE,107,2.8,7.6,51,0.00,,,0.00,WUHU216HW,2013-06-14 20:57:00,
2013-06-14 16:02:00,80.3,60.2,29.68,NE,45,6.5,8.9,50,0.00,,,0.00,WUHU216HW,2013-06-14 21:02:00,
2013-06-14 16:07:00,80.8,60.6,29.68,SSE,158,2.7,8.9,50,0.00,,,0.00,WUHU216HW,2013-06-14 21:07:00,
2013-06-14 16:12:00,79.9,59.8,29.68,ENE,68,5.4,6.5,50,0.00,,,0.00,WUHU216HW,2013-06-14 21:12:00,
2013-06-14 16:17:00,79.6,60.0,29.70,ENE,68,5.4,6.0,51,0.00,,,0.00,WUHU216HW,2013-06-14 21:17:00,
2013-06-14 16:22:00,79.6,60.1,29.71,ENE,68,4.0,6.0,51,0.00,,,0.00,WUHU216HW,2013-06-14 21:22:00,
2013-06-14 16:27:00,80.3,59.5,29.70,East,90,3.6,5.4,49,0.00,,,0.00,WUHU216HW,2013-06-14 21:27:00,
2013-06-14 16:32:00,80.4,60.2,29.70,ENE,68,3.1,5.4,50,0.00,,,0.00,WUHU216HW,2013-06-14 21:32:00,
2013-06-14 16:37:00,80.7,59.9,29.69,ESE,113,3.6,7.4,49,0.00,,,0.00,WUHU216HW,2013-06-14 21:37:00,
2013-06-14 16:42:00,81.8,61.6,29.70,ESE,105,2.3,7.4,50,0.00,,,0.00,WUHU216HW,2013-06-14 21:42:00,
2013-06-14 16:47:00,82.4,62.1,29.70,ENE,69,3.0,4.7,50,0.00,,,0.00,WUHU216HW,2013-06-14 21:47:00,
2013-06-14 16:52:00,83.3,62.4,29.69,SE,135,1.8,4.7,49,0.00,,,0.00,WUHU216HW,2013-06-14 21:52:00,
2013-06-14 16:57:00,84.5,61.6,29.69,SSE,158,5.1,5.1,46,0.00,,,0.00,WUHU216HW,2013-06-14 21:57:00,
2013-06-14 17:02:00,83.4,61.2,29.69,SE,135,2.0,5.1,47,0.00,,,0.00,WUHU216HW,2013-06-14 22:02:00,
2013-06-14 17:07:00,82.8,61.3,29.70,South,180,1.1,5.1,48,0.00,,,0.00,WUHU216HW,2013-06-14 22:07:00,
2013-06-14 17:12:00,82.2,60.1,29.69,East,91,1.4,4.9,47,0.00,,,0.00,WUHU216HW,2013-06-14 22:12:00,
2013-06-14 17:17:00,81.8,60.4,29.70,NNE,23,1.3,4.9,48,0.00,,,0.00,WUHU216HW,2013-06-14 22:17:00,
2013-06-14 17:22:00,81.6,60.8,29.70,East,83,2.7,3.8,49,0.00,,,0.00,WUHU216HW,2013-06-14 22:22:00,
2013-06-14 17:27:00,82.0,60.5,29.70,SE,137,1.0,3.8,48,0.00,,,0.00,WUHU216HW,2013-06-14 22:27:00,
2013-06-14 17:32:00,82.6,60.5,29.69,SW,215,2.3,3.6,47,0.00,,,0.00,WUHU216HW,2013-06-14 22:32:00,
2013-06-14 17:37:00,82.7,61.2,29.69,SSE,164,1.1,3.6,48,0.00,,,0.00,WUHU216HW,2013-06-14 22:37:00,
2013-06-14 17:42:00,82.6,61.0,29.69,NW,309,1.4,2.2,48,0.00,,,0.00,WUHU216HW,2013-06-14 22:42:00,
2013-06-14 17:47:00,81.9,60.5,29.70,SSW,193,1.1,3.1,48,0.00,,,0.00,WUHU216HW,2013-06-14 22:47:00,
2013-06-14 17:52:00,82.2,60.7,29.69,South,180,2.5,3.1,48,0.00,,,0.00,WUHU216HW,2013-06-14 22:52:00,
2013-06-14 17:57:00,81.5,60.6,29.69,South,177,1.3,2.5,49,0.00,,,0.00,WUHU216HW,2013-06-14 22:57:00,
2013-06-14 18:02:00,79.9,60.4,29.69,SSW,203,1.5,2.5,51,0.00,,,0.00,WUHU216HW,2013-06-14 23:02:00,
2013-06-14 18:07:00,79.5,61.6,29.70,WSW,241,0.8,2.2,54,0.00,,,0.00,WUHU216HW,2013-06-14 23:07:00,
2013-06-14 18:12:00,79.2,61.3,29.70,SSE,149,0.6,1.3,54,0.00,,,0.00,WUHU216HW,2013-06-14 23:12:00,
2013-06-14 18:17:00,78.8,63.0,29.71,NE,45,0.9,1.3,58,0.00,,,0.00,WUHU216HW,2013-06-14 23:17:00,
2013-06-14 18:22:00,78.1,63.4,29.71,WSW,248,0.7,1.1,60,0.00,,,0.00,WUHU216HW,2013-06-14 23:22:00,
2013-06-14 18:27:00,77.6,63.4,29.71,WNW,293,0.2,0.9,61,0.00,,,0.00,WUHU216HW,2013-06-14 23:27:00,
2013-06-14 18:32:00,77.2,63.9,29.72,West,270,0.9,0.9,63,0.00,,,0.00,WUHU216HW,2013-06-14 23:32:00,
2013-06-14 18:37:00,76.3,64.4,29.72,West,270,0.4,0.9,66,0.00,,,0.00,WUHU216HW,2013-06-14 23:37:00,
2013-06-14 18:42:00,75.8,63.9,29.72,West,270,0.0,0.7,66,0.00,,,0.00,WUHU216HW,2013-06-14 23:42:00,
2013-06-14 18:47:00,75.6,65.0,29.73,West,270,0.0,0.0,69,0.00,,,0.00,WUHU216HW,2013-06-14 23:47:00,
2013-06-14 18:52:00,75.0,64.8,29.72,West,270,0.2,0.4,70,0.00,,,0.00,WUHU216HW,2013-06-14 23:52:00,
2013-06-14 18:57:00,74.4,63.8,29.73,WSW,248,0.0,0.4,69,0.00,,,0.00,WUHU216HW,2013-06-14 23:57:00,
2013-06-14 19:02:00,74.0,63.4,29.72,WSW,248,0.0,0.4,69,0.00,,,0.00,WUHU216HW,2013-06-15 00:02:00,
2013-06-14 19:07:00,73.9,63.7,29.72,WSW,248,0.0,0.2,70,0.00,,,0.00,WUHU216HW,2013-06-15 00:07:00,
2013-06-14 19:12:00,73.5,63.3,29.72,WSW,248,0.0,0.2,70,0.00,,,0.00,WUHU216HW,2013-06-15 00:12:00,
2013-06-14 19:17:00,73.1,63.8,29.72,WSW,248,0.0,0.0,72,0.00,,,0.00,WUHU216HW,2013-06-15 00:17:00,
2013-06-14 19:22:00,72.5,63.6,29.72,WSW,248,0.0,0.0,73,0.00,,,0.00,WUHU216HW,2013-06-15 00:22:00,
2013-06-14 19:27:00,72.2,62.9,29.72,WSW,248,0.0,0.0,72,0.00,,,0.00,WUHU216HW,2013-06-15 00:27:00,
2013-06-14 19:32:00,72.0,63.4,29.72,WSW,248,0.0,0.0,74,0.00,,,0.00,WUHU216HW,2013-06-15 00:32:00,
2013-06-14 19:37:00,71.9,64.0,29.72,WSW,248,0.0,0.0,76,0.00,,,0.00,WUHU216HW,2013-06-15 00:37:00,
2013-06-14 19:42:00,71.5,63.7,29.72,WSW,242,0.7,1.1,76,0.00,,,0.00,WUHU216HW,2013-06-15 00:42:00,
2013-06-14 19:47:00,71.4,63.6,29.72,WSW,248,0.3,1.1,76,0.00,,,0.00,WUHU216HW,2013-06-15 00:47:00,
2013-06-14 19:52:00,71.5,63.3,29.71,WNW,293,0.4,0.7,75,0.00,,,0.00,WUHU216HW,2013-06-15 00:52:00,
2013-06-14 19:57:00,71.6,63.0,29.71,SSE,150,0.8,1.1,74,0.00,,,0.00,WUHU216HW,2013-06-15 00:57:00,
2013-06-14 20:02:00,72.5,63.5,29.71,SSW,203,1.1,1.1,73,0.00,,,0.00,WUHU216HW,2013-06-15 01:02:00,
2013-06-14 20:07:00,72.9,63.5,29.70,SSE,158,1.1,2.0,72,0.00,,,0.00,WUHU216HW,2013-06-15 01:07:00,
2013-06-14 20:12:00,73.2,63.4,29.70,SW,225,0.9,2.7,71,0.00,,,0.00,WUHU216HW,2013-06-15 01:12:00,
2013-06-14 20:17:00,73.3,63.5,29.70,WNW,283,1.2,2.7,71,0.00,,,0.00,WUHU216HW,2013-06-15 01:17:00,
2013-06-14 20:22:00,73.4,63.6,29.70,SSW,197,0.9,2.2,71,0.00,,,0.00,WUHU216HW,2013-06-15 01:22:00,
2013-06-14 20:27:00,73.3,63.5,29.70,South,180,0.4,1.8,71,0.00,,,0.00,WUHU216HW,2013-06-15 01:27:00,
2013-06-14 20:32:00,73.0,63.3,29.70,NE,45,0.4,0.7,71,0.00,,,0.00,WUHU216HW,2013-06-15 01:32:00,
2013-06-14 20:38:00,73.1,63.8,29.70,SW,225,0.0,0.4,72,0.00,,,0.00,WUHU216HW,2013-06-15 01:38:00,
2013-06-14 20:43:00,73.1,63.7,29.69,SSE,167,0.3,0.4,72,0.00,,,0.00,WUHU216HW,2013-06-15 01:43:00,
2013-06-14 20:48:00,72.9,64.0,29.68,SSE,152,0.7,1.6,73,0.00,,,0.00,WUHU216HW,2013-06-15 01:48:00,
2013-06-14 20:53:00,73.2,64.3,29.68,SSE,156,1.1,2.5,73,0.00,,,0.00,WUHU216HW,2013-06-15 01:53:00,
2013-06-14 20:58:00,73.3,64.4,29.68,SSW,198,0.3,2.5,73,0.00,,,0.00,WUHU216HW,2013-06-15 01:58:00,
2013-06-14 21:03:00,73.6,64.7,29.67,SE,135,1.8,3.8,73,0.00,,,0.00,WUHU216HW,2013-06-15 02:03:00,
2013-06-14 21:08:00,73.7,64.7,29.67,SSW,200,0.5,3.8,73,0.00,,,0.00,WUHU216HW,2013-06-15 02:08:00,
2013-06-14 21:13:00,73.8,65.2,29.66,South,180,0.4,1.8,74,0.00,,,0.00,WUHU216HW,2013-06-15 02:13:00,
2013-06-14 21:18:00,74.0,65.0,29.64,SE,146,1.2,2.0,73,0.00,,,0.00,WUHU216HW,2013-06-15 02:18:00,
2013-06-14 21:23:00,74.1,65.5,29.63,SSE,158,2.2,2.2,74,0.00,,,0.00,WUHU216HW,2013-06-15 02:23:00,
2013-06-14 21:28:00,74.2,65.6,29.62,South,188,2.0,2.7,74,0.00,,,0.00,WUHU216HW,2013-06-15 02:28:00,
2013-06-14 21:33:00,74.3,65.7,29.62,ESE,119,1.7,2.9,74,0.00,,,0.00,WUHU216HW,2013-06-15 02:33:00,
2013-06-14 21:38:00,74.3,65.3,29.62,ENE,67,1.4,2.9,73,0.00,,,0.00,WUHU216HW,2013-06-15 02:38:00,
2013-06-14 21:43:00,74.5,65.5,29.61,WSW,248,1.6,3.1,73,0.00,,,0.00,WUHU216HW,2013-06-15 02:43:00,
2013-06-14 21:48:00,74.6,65.5,29.63,SE,134,1.2,3.1,73,0.00,,,0.00,WUHU216HW,2013-06-15 02:48:00,
2013-06-14 21:53:00,74.8,65.4,29.63,ENE,74,2.6,4.7,72,0.00,,,0.00,WUHU216HW,2013-06-15 02:53:00,
2013-06-14 21:58:00,74.9,65.5,29.63,NE,45,2.0,4.9,72,0.00,,,0.00,WUHU216HW,2013-06-15 02:58:00,
2013-06-14 22:03:00,75.0,65.6,29.62,SE,135,2.7,4.9,72,0.00,,,0.00,WUHU216HW,2013-06-15 03:03:00,
2013-06-14 22:08:00,75.3,65.9,29.62,NE,45,2.6,4.5,72,0.00,,,0.00,WUHU216HW,2013-06-15 03:08:00,
2013-06-14 22:13:00,75.4,65.9,29.63,NE,55,2.7,5.1,72,0.00,,,0.00,WUHU216HW,2013-06-15 03:13:00,
2013-06-14 22:18:00,75.4,65.6,29.65,ESE,119,1.9,5.1,71,0.00,,,0.00,WUHU216HW,2013-06-15 03:18:00,
2013-06-14 22:23:00,75.5,65.7,29.65,SE,128,1.7,2.9,71,0.00,,,0.00,WUHU216HW,2013-06-15 03:23:00,
2013-06-14 22:28:00,75.6,65.8,29.66,East,90,2.5,3.1,71,0.00,,,0.00,WUHU216HW,2013-06-15 03:28:00,
2013-06-14 22:33:00,75.7,65.8,29.66,East,79,0.9,3.1,71,0.00,,,0.00,WUHU216HW,2013-06-15 03:33:00,
2013-06-14 22:38:00,75.5,65.7,29.67,ENE,68,0.2,2.5,71,0.00,,,0.00,WUHU216HW,2013-06-15 03:38:00,
2013-06-14 22:43:00,75.3,65.9,29.68,West,270,0.7,1.1,72,0.00,,,0.00,WUHU216HW,2013-06-15 03:43:00,
2013-06-14 22:48:00,74.8,65.4,29.69,West,270,0.0,1.1,72,0.00,,,0.00,WUHU216HW,2013-06-15 03:48:00,
2013-06-14 22:53:00,73.9,65.3,29.68,East,90,0.4,1.1,74,0.00,,,0.00,WUHU216HW,2013-06-15 03:53:00,
2013-06-14 22:58:00,73.5,65.3,29.69,East,90,0.0,0.4,75,0.00,,,0.00,WUHU216HW,2013-06-15 03:58:00,
2013-06-14 23:01:00,73.5,65.3,29.69,North,0,0.0,0.4,75,0.00,,,0.00,WUHU216HW,2013-06-15 04:01:00,
2013-06-14 23:02:00,73.4,65.9,29.69,West,270,0.4,0.4,77,0.00,,,0.00,WUHU216HW,2013-06-15 04:02:00,
2013-06-14 23:07:00,72.7,65.3,29.70,East,90,0.0,0.4,77,0.00,,,0.00,WUHU216HW,2013-06-15 04:07:00,
2013-06-14 23:12:00,72.4,64.9,29.69,East,90,0.0,0.0,77,0.00,,,0.00,WUHU216HW,2013-06-15 04:12:00,
2013-06-14 23:17:00,72.1,65.4,29.68,ESE,113,0.3,0.7,79,0.00,,,0.00,WUHU216HW,2013-06-15 04:17:00,
2013-06-14 23:22:00,72.5,65.4,29.68,West,270,0.0,0.7,78,0.00,,,0.00,WUHU216HW,2013-06-15 04:22:00,
2013-06-14 23:27:00,72.9,65.8,29.67,East,79,1.3,2.7,78,0.00,,,0.00,WUHU216HW,2013-06-15 04:27:00,
2013-06-14 23:32:00,73.7,66.2,29.66,ENE,68,1.1,2.7,77,0.00,,,0.00,WUHU216HW,2013-06-15 04:32:00,
2013-06-14 23:37:00,74.1,66.3,29.67,West,270,0.4,1.8,76,0.00,,,0.00,WUHU216HW,2013-06-15 04:37:00,
2013-06-14 23:42:00,74.2,66.3,29.68,South,180,0.4,1.8,76,0.00,,,0.00,WUHU216HW,2013-06-15 04:42:00,
2013-06-14 23:47:00,74.0,66.9,29.69,SW,225,0.2,0.9,78,0.00,,,0.00,WUHU216HW,2013-06-15 04:47:00,
2013-06-14 23:52:00,73.5,67.0,29.71,NW,315,0.4,0.4,80,0.00,,,0.00,WUHU216HW,2013-06-15 04:52:00,
2013-06-14 23:57:00,72.5,65.8,29.71,NW,315,0.0,0.4,79,0.00,,,0.00,WUHU216HW,2013-06-15 04:57:00,